Location: Baker Lake Dam
(34.5001°N, 88.9351°W)
Time: 00:27:07
(UTC+00:00)

Daily predictions for brighter satellites

Satellite Brightness Start Highest point End
(mag) Time Altitude Azimuth Time Altitude Azimuth Time Altitude Azimuth
H-2A R/B 3.0 00:16:08 10° ESE 00:20:04 24° ENE 00:24:02 10° NNE
Cosmos 158 Rocket 4.1 00:17:06 10° N 00:22:15 56° ENE 00:27:14 10° SSE
Iridium 4 Rocket 3.5 00:18:43 10° SSE 00:23:20 58° E 00:28:26 10° N
ARGOS 4.4 00:19:59 10° ESE 00:23:57 22° ENE 00:27:56 10° NNE
GPS 2-04 Rocket1 4.2 00:22:59 10° W 00:26:47 33° SSW 00:30:32 10° SE
SJ 16-02 3.2 00:24:41 10° SW 00:28:43 36° WNW 00:32:47 10° N
Cosmos 1437 3.9 00:26:54 10° NNE 00:29:16 21° ENE 00:31:38 10° SE
Cosmos 1939 Rocket 3.4 00:28:20 10° S 00:32:22 65° W 00:36:30 10° NNW
Milstar 3 Cent rocket 3.9 00:26:39 10° SW 00:32:58 24° SSE 00:37:15 10° ESE
CZ-2C R/B 3.9 00:29:17 10° NE 00:33:14 20° E 00:37:11 10° SE
Helios 1A Rocket 3.5 00:29:24 10° S 00:33:26 62° W 00:37:30 10° NNW
NOSS 2-2 (E) 3.0 00:31:21 10° SSW 00:34:52 90° NW 00:38:28 10° NNE
SL-16 R/B 3.6 00:29:57 10° NW 00:35:17 43° WSW 00:40:34 10° S
Cosmos 1378 Rocket 3.9 00:31:04 10° NNW 00:35:21 69° W 00:39:37 10° S
Okean 2 Rocket 4.3 00:31:55 10° SE 00:35:23 22° E 00:38:51 10° NE
CZ-2D R/B 3.6 00:35:05 10° S 00:38:56 72° W 00:42:50 10° NNW
Cosmos 2263 Rocket 2.6 00:33:34 10° SSW 00:39:05 68° WNW 00:44:39 10° NNE
ATLAS 2AS CENTAUR R/B 4.4 00:36:44 10° ESE 00:39:15 12° ESE 00:40:32 11° E
Okean-O 2.8 00:34:59 10° S 00:39:24 78° WSW 00:43:51 10° NNW
Cosmos 1900 4.4 00:34:43 10° NNW 00:39:53 72° ENE 00:45:00 10° SSE
HJ-1C 4.1 00:38:12 10° SE 00:41:09 32° ENE 00:44:08 10° N
DELTA 2 R/B (1) 3.9 00:36:40 10° WNW 00:42:10 60° NNE 00:46:52 14° E
Meteor 2-9 Rocket 4.3 00:36:37 10° S 00:42:29 86° E 00:48:20 10° N
NOSS 2-2 (D) 2.9 00:39:49 10° SSW 00:43:22 85° ESE 00:46:57 10° NNE
CZ-2C R/B 3.1 00:39:30 10° SSE 00:44:31 60° ENE 00:49:51 10° N
Cosmos 1844 Rocket 3.6 00:42:07 10° SSE 00:46:28 24° ESE 00:50:51 10° NE
Cosmos 1300 Rocket 4.4 00:43:38 10° SSE 00:47:23 29° E 00:51:11 10° NNE
Ariane Rocket 4.2 00:50:37 16° ESE 00:53:08 23° ENE 00:57:02 10° NNE
YAOGAN 1 2.7 00:49:03 10° S 00:53:20 76° WSW 00:57:41 10° NNW
USA 116 4.2 00:49:50 10° N 00:53:21 61° WNW 00:57:17 10° SSW
USA 186 3.6 00:54:52 15° ENE 00:54:52 15° ENE 00:56:17 10° NNE
Cosmos 1464 Rocket 4.0 00:54:55 10° SSE 01:00:48 52° E 01:06:45 10° NNE
Cosmos 1943 3.2 00:55:31 10° NNW 01:01:08 63° ENE 01:06:43 10° SSE
Cosmos 2298 Rocket 4.4 00:56:45 10° S 01:01:44 42° ESE 01:06:43 10° NNE
Okean 2 3.6 00:58:08 10° N 01:02:17 73° W 01:06:25 10° S
Meteor 1-12 Rocket 4.4 00:57:02 10° S 01:02:48 55° E 01:08:30 10° NNE
CSL-04 Debris 4.2 01:01:28 10° SSE 01:06:51 86° WSW 01:12:16 10° NNW
CZ-4 R/B 3.2 01:07:12 10° SSW 01:11:05 35° W 01:14:58 10° NNW
Meteor 1-21 4.2 01:08:36 10° N 01:14:13 83° W 01:19:48 10° S
CSL-04 Rocket 3.9 01:10:51 10° S 01:16:12 74° WSW 01:21:41 10° NNW
Cosmos 2151 Rocket 3.8 01:12:18 10° SSE 01:16:31 45° E 01:20:47 10° NNE
Cosmos 1867 4.1 01:14:35 10° NNW 01:19:42 39° NE 01:21:23 31° E
Cosmos 1603 3.9 01:15:12 10° NNW 01:20:50 73° WSW 01:26:25 10° SSE
CZ-2C R/B 0.7 01:17:53 10° W 01:21:26 83° N 01:22:04 56° ENE
Cosmos 1025 Rocket 3.4 01:19:11 10° N 01:23:20 42° E 01:23:51 40° E
USA 102 4.0 01:22:50 52° SE 01:23:58 73° ENE 01:30:05 10° NNW
Cosmos 372 Rocket 4.3 01:21:56 10° SSW 01:27:09 70° WNW 01:32:23 10° NNE
Cosmos 1891 Rocket 4.5 01:22:15 10° S 01:28:27 83° W 01:34:34 10° N
Cosmos 2150 Rocket 3.9 01:26:22 10° S 01:31:41 77° ESE 01:37:06 10° NNE
DMSP B5D2-2 4.0 01:28:33 10° NNE 01:33:48 63° E 01:39:01 10° S
BREEZE-M DEB (TANK) 4.1 01:36:09 10° NNW 01:39:51 42° NE 01:42:24 32° E
Cosmos 1125 Rocket 3.4 01:36:38 10° S 01:41:50 61° ESE 01:47:04 10° NNE
SJ-6B 3.6 01:44:19 38° NNE 01:44:19 38° NNE 01:46:49 10° N
Cosmos 2084 Rocket 4.0 01:41:00 10° NW 01:45:24 57° WSW 01:46:48 39° S
Cosmos 1707 3.0 01:41:49 10° NNW 01:45:37 63° W 01:46:32 45° SSW
Resurs 01 Rocket 3.9 01:49:35 13° NNE 01:49:35 13° NNE 01:50:19 10° NNE
ISS -1.0 01:49:35 10° WNW 01:51:42 16° NNW 01:53:13 12° N
USA 234 3.4 01:46:24 10° NE 01:52:56 76° NW 01:59:28 10° SW
Cosmos 2034 Rocket 4.2 01:51:30 10° SSW 01:57:51 74° W 02:04:14 10° N
H-2A R/B 3.7 01:54:58 10° SSW 01:59:18 31° W 02:03:41 10° NW
Nadezhda 4 Rocket 3.8 01:55:13 10° N 02:01:22 84° E 02:03:08 49° SSE
ARGOS 4.3 01:58:52 10° SSW 02:03:53 41° W 02:08:56 10° NNW
In-Cosmos 22 4.3 02:01:01 10° NNW 02:06:16 66° W 02:07:58 42° SSW
CZ-2C R/B 3.7 02:08:22 10° N 02:13:39 47° WNW 02:18:59 10° SW
MOS 1 4.5 02:14:02 50° SSW 02:15:23 68° WSW 02:21:05 10° NNW
Cosmos 1048 Rocket 4.4 02:11:02 10° NNW 02:15:16 56° N 02:15:16 56° N
Cosmos 1844 4.1 02:13:16 10° SSW 02:18:54 61° WNW 02:24:31 10° NNE
DELTA 2 R/B (1) 4.2 02:23:12 10° WNW 02:27:38 50° WSW 02:27:38 50° WSW
ATLAS 2AS CENTAUR R/B 2.9 02:21:12 10° SSW 02:33:17 31° NE 02:36:58 10° NE
Cosmos 1844 Rocket 4.0 02:24:57 10° SW 02:30:04 38° WNW 02:35:14 10° N
Cosmos 1634 Rocket 4.4 02:32:53 51° N 02:32:53 51° N 02:37:24 10° N
Ariane Rocket 4.3 02:30:49 32° WSW 02:31:50 35° W 02:36:28 10° NNW
CENTAUR R/B 3.4 02:39:41 10° NNW 02:47:17 59° NE 02:47:17 59° NE
ATLAS 3B R/B 4.4 02:48:25 10° N 02:51:46 20° NNE 02:51:46 20° NNE
USA 238 DEB 4.0 02:49:11 10° NNW 02:55:26 68° NW 02:55:26 68° NW
USA 238 4.0 02:49:17 10° NNW 02:55:31 67° NW 02:55:31 67° NW
IDEFIX/ARIANE 42P 4.3 08:34:06 10° NNE 08:36:52 29° NE 08:36:52 29° NE
ARIANE 5 R/B 4.5 08:41:16 10° NNE 08:43:09 23° NNE 08:43:09 23° NNE
H-2A R/B 4.5 08:58:50 10° ESE 09:02:07 21° ENE 09:05:28 10° NNE
BREEZE-M DEB (TANK) 3.9 09:13:55 59° SW 09:15:46 83° SE 09:20:13 10° ENE
ASTEX 1 4.5 09:11:16 10° N 09:14:18 38° N 09:14:18 38° N
Cosmos 1697 Rocket 4.1 09:19:34 25° NNW 09:19:34 25° NNW 09:22:25 10° N
SL-4 R/B 3.9 09:19:51 27° ESE 09:19:51 27° ESE 09:23:33 10° ENE
CZ-2C R/B 3.9 09:15:10 10° NNE 09:19:51 35° E 09:23:04 18° SSE
Cosmos 1980 Rocket 2.6 09:22:31 53° NNW 09:22:31 53° NNW 09:27:02 10° NNE
Cosmos 2322 Rocket 4.0 09:22:33 10° SSE 09:27:12 28° ESE 09:31:58 10° NE
SL-16 R/B 3.3 09:31:25 20° SSE 09:34:54 42° ESE 09:40:13 10° NE
Cosmos 2263 Rocket 4.0 09:30:55 10° N 09:35:52 30° ENE 09:40:46 10° ESE
Chandra Rocket (1) 4.4 09:31:38 36° W 09:38:12 57° SSW 09:44:27 10° ESE
Meteor 1-14 Rocket 4.0 09:36:22 10° N 09:41:58 88° W 09:47:29 10° S
NOSS 3-3 (A) 3.7 09:45:00 60° WSW 09:45:48 68° WNW 09:52:00 10° NNE
NOSS 3-3 (C) 3.6 09:45:10 60° WSW 09:45:56 68° WNW 09:52:05 10° NNE
Celestis-02/Orion 38 4.5 09:42:46 10° SSE 09:48:04 70° WSW 09:53:17 10° NNW
Lacrosse 5 3.7 09:48:47 17° NNW 09:48:47 17° NNW 09:51:57 10° N
Cosmos 1238 Rocket 3.8 09:44:42 10° N 09:51:14 73° W 09:57:05 10° S
Meteor 2-6 Rocket 4.1 09:48:56 35° SSW 09:51:23 83° W 09:57:09 10° N
BREEZE-M DEB (TANK) 4.5 09:50:54 37° W 09:54:04 64° NNW 10:19:56 10° ENE
Cosmos 921 Rocket 3.1 09:55:09 55° NW 09:55:09 55° NW 09:58:43 10° N
Cosmos 44 4.3 09:58:36 28° NW 09:58:36 28° NW 10:01:51 10° N
Meteor 1-5 Rocket 4.4 09:54:01 10° N 09:59:19 68° E 10:04:44 10° SSE
Cosmos 2228 Rocket 3.5 10:01:20 43° NW 10:01:20 43° NW 10:04:55 10° N
IRIDIUM 114 4.3 10:01:09 10° N 10:06:23 85° E 10:11:36 10° S
Meteor 1-4 Rocket 2.2 10:09:31 72° WSW 10:09:42 75° W 10:13:10 10° N
Cosmos 1934 Rocket 4.2 10:05:48 10° NNW 10:11:26 42° W 10:17:04 10° SSW
X-37B 3.3 10:10:31 11° NNW 10:11:37 13° N 10:13:08 10° NNE
Skynet4D Del rocket 4.4 10:09:49 30° SW 10:11:44 40° S 10:17:25 10° ESE
ADEOS 3.9 10:09:20 10° NNE 10:14:31 67° ESE 10:19:41 10° S
IRIDIUM 103 4.2 10:10:17 10° N 10:15:31 78° W 10:20:42 10° S
Cosmos 1536 4.5 10:13:33 10° NNE 10:17:20 36° E 10:21:06 10° SSE
IDEFIX/ARIANE 42P 4.2 10:14:51 10° NNW 10:17:40 18° NW 10:17:40 18° NW
DELTA 4 R/B 4.3 10:09:18 24° W 10:18:40 45° SSW 10:23:45 10° SE
ADEOS Rocket 3.4 10:11:58 10° SSE 10:19:05 78° ENE 10:25:30 10° N
Cosmos 1484 Rocket 3.6 10:17:09 10° NNE 10:21:04 54° E 10:24:59 10° S
USA 234 3.2 10:14:48 10° SE 10:21:19 79° SW 10:27:52 10° NW
Cosmos 1869 Rocket 3.4 10:20:02 10° NNW 10:24:19 63° W 10:28:34 10° S
ALOS 2.8 10:20:14 10° NNE 10:24:51 60° E 10:29:26 10° S
Meteor 1-11 Rocket 3.9 10:20:36 10° N 10:26:22 77° E 10:31:59 10° SSE
Cosmos 1153 Rocket 4.5 10:21:45 10° N 10:28:09 83° W 10:34:26 10° S
ERS-2 2.1 10:25:23 10° S 10:28:58 58° WSW 10:32:35 10° NNW
Cosmos 967 Rocket 4.5 10:23:27 10° SSW 10:29:49 85° WNW 10:36:16 10° NNE
Meteor 1-31 Rocket 3.3 10:28:08 10° NNE 10:31:55 59° E 10:35:42 10° S
FALCON 9 DEB 3.2 10:31:12 34° WSW 10:32:23 56° NW 10:35:46 10° NE
Cosmos 841 Rocket 3.8 10:28:06 10° S 10:33:15 69° ESE 10:38:28 10° NNE
Meteor 1-27 Rocket 3.8 10:27:46 10° SSW 10:33:41 74° W 10:39:37 10° N
IRIDIUM 106 4.5 10:28:45 10° NNW 10:33:47 50° W 10:38:47 10° SSW
Cosmos 1605 Rocket 4.3 10:28:51 10° NNW 10:34:52 44° W 10:40:52 10° SSW
H-2A R/B 2.9 10:34:12 10° SSW 10:37:53 27° W 10:41:39 10° NW
SJ 16-02 1.3 10:34:58 10° NNW 10:39:18 62° WSW 10:43:37 10° S
Cosmos 1763 Rocket 3.9 10:38:58 12° SW 10:43:38 45° WNW 10:48:44 10° N
Cosmos 1000 Rocket 4.4 10:38:13 10° S 10:44:27 85° W 10:50:39 10° N
Cosmos 1570 Rocket 4.0 10:40:37 10° SSW 10:45:54 90° ESE 10:51:16 10° NNE
Cosmos 1812 4.3 10:47:59 16° WNW 10:48:08 16° WNW 10:50:37 10° NW
Cosmos 2360 Rocket 2.2 10:49:39 10° SSW 10:55:19 90° WNW 11:01:01 10° NNE
CZ-4B R/B 1.5 10:54:33 10° S 10:57:29 41° W 11:00:31 10° NNW
SJ-12 4.1 10:53:35 10° NNE 10:57:43 76° E 11:01:51 10° S
CZ-2C R/B 3.7 10:53:48 10° NNW 10:57:50 24° WNW 11:01:53 10° WSW
SL-4 R/B 2.9 10:55:28 14° WSW 10:59:08 42° NW 11:03:41 10° NE
Meteor 2-20 4.4 10:54:13 10° S 11:00:22 81° W 11:06:30 10° N
COSMO-SKYMED 1 3.5 10:56:57 10° SSE 11:01:09 53° ENE 11:05:24 10° N
Cosmos 1666 3.4 11:01:36 10° NNW 11:05:00 31° W 11:08:21 10° SSW
DEBRIS 3.5 11:04:58 10° NW 11:07:58 83° NE 11:17:19 10° SE
Cosmos 2100 Rocket 4.1 11:03:34 10° NNW 11:09:50 62° W 11:16:04 10° S
METEOR-M 4.2 11:04:46 10° N 11:10:00 58° WNW 11:15:14 10° SSW
Cosmos 2322 Rocket 2.9 11:05:59 10° SW 11:11:04 34° WNW 11:16:12 10° N
Cosmos 990 Rocket 4.2 11:06:32 10° NNW 11:11:30 47° WSW 11:16:28 10° S
Cosmos 1802 Rocket 4.0 11:06:23 10° N 11:12:35 80° W 11:18:51 10° S
Cosmos 44 Rocket 3.4 11:08:58 10° SW 11:13:33 54° WNW 11:18:15 10° NNE
FENGYUN 3A 4.0 11:09:15 10° N 11:14:19 43° WNW 11:19:23 10° SW
Cosmos 540 Rocket 3.8 11:11:12 10° SW 11:16:06 44° WNW 11:21:03 10° N
Cosmos 2237 4.4 11:11:04 10° SW 11:16:38 53° WNW 11:22:13 10° N
SL-16 R/B 3.4 11:14:40 10° WSW 11:19:08 24° WNW 11:23:38 10° N
Cosmos 2263 Rocket 2.9 11:14:44 10° NW 11:19:41 32° WSW 11:24:39 10° SSW
